Location: Carrières
(48.9495°N, 2.0407°E)
Time: 13:11:58
(UTC+00:00)

NOAA 15 - Pass Details

Date: 28 January 2023
Orbit: 797 x 811 km, 98.6° (Epoch: 24 March)

Event Time Altitude Azimuth Distance (km) Brightness Sun altitude
Rises 18:25:48 0° 159° (SSE) 3,291 7.7 -17.0°
Reaches altitude 10° 18:28:07 10° 158° (SSE) 2,367 6.9 -17.3°
Maximum altitude 18:33:20 79° 73° (ENE) 822 4.5 -18.2°
Drops below altitude 10° 18:38:38 10° 348° (NNW) 2,392 7.1 -19.0°
Sets 18:40:59 0° 347° (NNW) 3,330 7.9 -19.4°
